Regional Weather Roundup
Issued by NWS Glasgow, MT

Home | Current Version | Previous Version | Text Only | Print | Product List | Glossary On
Versions: 1 2 3 4 5 6 7 8 9 10 11 12 13 14 15 16 17 18 19 20 21 22 23 24 25 26 27 28 29 30 31 32 33 34 35 36 37 38 39 40 41 42 43 44 45 46 47 48 49 50
000
ASUS45 KGGW 250115
RWRGGW
HOURLY WEATHER ROUNDUP FOR NORTHEAST MONTANA
NATIONAL WEATHER SERVICE GLASGOW MONTANA
700 PM MDT FRI APR 24 2015

NOTE: "FAIR" INDICATES FEW OR NO CLOUDS BELOW 12,000 FEET WITH NO
SIGNIFICANT WEATHER AND/OR OBSTRUCTIONS TO VISISBILITY.

NORTHEAST MONTANA


CITY           SKY/WX    TMP DP  RH WIND       PRES   REMARKS
GLASGOW        MOSUNNY   64  32  30 N12       29.58R
PLENTYWOOD       N/A    N/A N/A N/A N7G16       N/A
WOLF POINT     CLOUDY    65  43  44 SE3       29.57R
JORDAN           N/A     65  33  30 N16       29.57R
WINNETT          N/A     62  32  32 NE12        N/A
SIDNEY         CLOUDY    66  37  34 CALM      29.59R
GLENDIVE       CLOUDY    64  36  34 S6        29.59F
MALTA            N/A     63  35  35 N7          N/A
SCOBEY           N/A     62  32  32 E8        29.61R
OPHEIM           N/A     57  30  35 W6        29.47S

FORT PECK REPORTS


CITY           SKY/WX    TMP DP  RH WIND       PRES   REMARKS
FORT PECK        N/A     66  37  34 NW12        N/A
THE PINES        N/A     64  33  31 N6          N/A

SOUTHEAST MONTANA


CITY           SKY/WX    TMP DP  RH WIND       PRES   REMARKS
BILLINGS       MOSUNNY   67  36  31 E14       29.52S
MILES CITY     LGT RAIN  54  48  80 E13       29.60F
BAKER          MOCLDY    63  35  35 E8        29.60R
LIVINGSTON     CLOUDY    55  39  54 W10       29.59R

CENTRAL MONTANA


CITY           SKY/WX    TMP DP  RH WIND       PRES   REMARKS
HAVRE          CLOUDY    59  31  34 NW6       29.61R
LEWISTOWN      LGT RAIN  50  40  68 NW9       29.65R
GREAT FALLS    LGT RAIN  45  39  79 S6        29.68R
CUT BANK       CLOUDY    50  21  32 W22G30    29.65R
HELENA         CLOUDY    48  33  56 W18G24    29.67S
BUTTE          LGT RAIN  36  33  89 NW6       29.73R
BOZEMAN        CLOUDY    45  38  76 W12       29.66R

WESTERN MONTANA


CITY           SKY/WX    TMP DP  RH WIND       PRES   REMARKS
MISSOULA       CLOUDY    49  23  36 NW17      29.76R
KALISPELL      NOT AVBL

NORTH DAKOTA


CITY           SKY/WX    TMP DP  RH WIND       PRES   REMARKS
WILLISTON      CLEAR     65  34  31 E10       29.61R
DICKINSON      PTCLDY    63  32  31 E10       29.60R
MINOT          PTCLDY    59  35  40 NE10      29.65R
BISMARCK       CLEAR     63  40  42 E12       29.62R

SOUTHERN SASKATCHEWAN


CITY           SKY/WX    TMP DP  RH WIND       PRES   REMARKS
REGINA         MOCLDY    54  30  40 NE20G26   29.66S
ESTEVAN        MOCLDY    57  36  44 E10       29.66R
SWIFT CURRENT  MOSUNNY   54  36  50 E16G25    29.60R



USA.gov is the U.S. government's official web portal to all federal, state and local government web resources and services.